Погода в Шолье

Россия / Удмуртская Республика     56°20′57″N   54°03′29″E
темп.,
°C
ветер,
м/с
пор.,
м/с
влажн.,
%
обл.,
%
осадки,
мм/ч
давл.,
гПа
погр.,
м
25 февраля, чт
чт2501:00−27ссз23950 0.0 103220
04:00−28сз22950 0.0 103319
07:00−29зсз11980 0.0 103219
10:00−25ююз12930 0.0 1032110
13:00−22ю349221 0.0 1030262
16:00−21ююв369324 0.0 1029296
19:00−24юв359778 0.0 102781
22:00−25юв369681 0.0 102699
26 февраля, пт
пт2601:00−25юв389534 0.0 1024150
04:00−25юв379862 0.0 1024151
07:00−24юв489994 0.1 1023192
10:00−22юв489695 0.1 1023315
13:00−19юв5892100 0.0 1021430
16:00−18юв5992100 0.0 1020437
19:00−21юв4119687 0.0 1018267
22:00−21юв5129560 0.0 1016288
27 февраля, сб
сб2701:00−19юв61392100 0.0 1012407
04:00−17юв81591100 0.0 1008515
07:00−16юв71495100 1.3 1005593
10:00−14юв71293100 2.6 1003567
13:00−11вюв61091100 0.3 1002612
16:00−9вюв5993100 0.6 1002540
19:00−10в5995100 0.5 1002350
22:00−10в4995100 0.9 1002326
28 февраля, вс
вс2801:00−12всв5995100 0.4 1002289
04:00−13всв5995100 0.9 1003276
07:00−14св489599 0.3 1003264
10:00−13св479397 0.4 1004320
13:00−10ссв4692100 0.1 1005405
16:00−10ссв5792100 0.1 1007447
19:00−13с499491 0.1 1009277
22:00−15с489586 0.1 1011227
1 марта, пн
пн101:00−16с489692 0.0 1012243
04:00−19с489894 0.1 1014179
07:00−21с489884 0.0 1016180
10:00−18с489484 0.0 1017290
13:00−14с479080 0.0 1018417
16:00−12ссз469290 0.0 1019401
19:00−16сз239461 0.0 101920
22:00−17з239556 0.0 101925